Regional Weather Roundup
Issued by NWS Upton, NY

Current Version | Previous Version | Text Only | Print | Product List | Glossary Off
Versions: 1 2 3 4 5 6 7 8 9 10 11 12 13 14 15 16 17 18 19 20 21 22 23 24 25 26 27 28 29 30 31 32 33 34 35 36 37 38 39 40 41 42 43 44 45 46 47 48 49
000 ASUS41 KOKX 180405 RWROKX REGIONAL WEATHER ROUNDUP NATIONAL WEATHER SERVICE NEW YORK NY 1100 PM EST WED DEC 17 2014 NOTE: "FAIR" INDICATES FEW OR NO CLOUDS BELOW 12,000 FEET WITH NO SIGNIFICANT WEATHER AND/OR OBSTRUCTIONS TO VISIBILITY. NYZ071-072-176-178-NJZ106-104-180500- NEW YORK CITY METRO AREA CITY SKY/WX TMP DP RH WIND PRES REMARKS CENTRAL PARK CLOUDY 43 26 51 W10G18 29.91S LAGUARDIA APRT CLOUDY 43 27 53 W14G25 29.89S KENNEDY INTL MOCLDY 44 28 53 W16 29.90S NEWARK/LIBERTY MOCLDY 42 27 55 W16G23 29.91S BRNX BOT. GARD N/A N/A N/A N/A W14 29.90R TETERBORO CLOUDY 42 28 57 W8 29.89S $$ NYZ177-179-078>081-180500- LONG ISLAND NEW YORK CITY SKY/WX TMP DP RH WIND PRES REMARKS FARMINGDALE CLOUDY 44 32 62 W10 29.88R ISLIP MOCLDY 42 32 67 W10 29.85S SHIRLEY PTCLDY 42 31 64 W8 29.86S WESTHAMPTON CLEAR 40 30 67 W8 29.86S WCI 34 MONTAUK POINT N/A 45 34 65 W14G24 29.83R $$ NYZ052-065-067-180500- HUDSON VALLEY CITY SKY/WX TMP DP RH WIND PRES REMARKS WHITE PLAINS MOCLDY 40 32 73 W15 29.86R WCI 32 NEWBURGH NOT AVBL MONTGOMERY CLOUDY 40 29 64 W14G20 29.87S WCI 32 POUGHKEEPSIE CLOUDY 42 28 57 W12 29.86S ALBANY CLOUDY 37 29 72 W10 29.85F WCI 30 $$ NJZ001-105-106-008-010-013-015-019>022-104-180500- NEW JERSEY CITY SKY/WX TMP DP RH WIND PRES REMARKS NEWARK/LIBERTY MOCLDY 42 27 55 W16G23 29.91S TETERBORO CLOUDY 42 28 57 W8 29.89S CALDWELL CLOUDY 41 27 57 W8 29.90S MORRISTOWN N/A 41 27 56 W6 29.91S SOMERVILLE PTCLDY 39 26 59 W8 29.91S WCI 33 SUSSEX CLOUDY 40 26 57 NW9G17 29.90R WCI 34 ANDOVER N/A 38 26 62 VRB5 29.90S WCI 34 TRENTON CLEAR 37 23 56 W10 29.95S WCI 30 MILLVILLE CLEAR 38 25 59 NW14 29.98F WCI 30 ATLANTIC CITY CLEAR 38 25 59 W12 29.97F WCI 30 WRIGHTSTOWN MOCLDY 38 24 57 W14 29.93F WCI 29 TOMS RIVER CLEAR 39 25 56 W13G18 29.95S WCI 32 BELMAR CLEAR 39 25 56 W8 29.92F WCI 34 $$ PAZ047>061-062-071-180500- EASTERN PENNSYLVANIA CITY SKY/WX TMP DP RH WIND PRES REMARKS PHILADELPHIA PTCLDY 40 21 46 NW21G29 29.99F WCI 30 ALLENTOWN CLOUDY 37 21 52 W13 29.95F WCI 29 SCRANTON CLOUDY 36 25 64 SW9 29.92S WCI 29 $$ CTZ002-004>006-009-010-012-RIZ004-006-007-MAZ004-011-015-180500- SOUTHERN NEW ENGLAND IN CT CITY SKY/WX TMP DP RH WIND PRES REMARKS BRADLEY INTL DRIZZLE 40 29 64 NW10 29.81F WCI 33 HARTFORD MOCLDY 40 31 70 W7 29.83F DANBURY MOCLDY 40 27 59 W8G17 29.85S WCI 34 WTRBRY/OXFORD PTCLDY 37 28 70 NW7 29.82F WCI 32 BRIDGEPORT CLEAR 42 31 64 W7 29.85S MERIDEN PTCLDY 39 32 76 VRB6 29.84S WCI 35 NEW HAVEN PTCLDY 44 33 65 VRB3 29.84S CHESTER FAIR 37 34 87 NW5 29.82R WCI 34 GROTON PTCLDY 40 32 73 W12 29.81S WCI 33 WILLIMANTIC MOCLDY 39 29 67 NW10 29.80F WCI 32 IN RI CITY SKY/WX TMP DP RH WIND PRES REMARKS PROVIDENCE CLOUDY 42 30 62 W9G20 29.77S BLOCK ISLAND PTCLDY 43 32 65 NW16G25 29.79S WESTERLY PTCLDY 42 31 64 NW9G17 29.80F IN MA CITY SKY/WX TMP DP RH WIND PRES REMARKS BOSTON CLOUDY 42 34 73 W14G22 29.73S WORCESTER CLOUDY 35 31 85 W14 29.72F WCI 26 WESTFIELD CLOUDY 40 28 62 W10G22 29.80F WCI 33 PROVINCETOWN CLOUDY 45 37 76 W21G26 29.71F NANTUCKET CLOUDY 46 39 76 W13G22 29.74S $$ ANZ330-335-338-340-345-350-353-355-180500- COASTAL MARINE OBSERVATIONS STATION/POSITION TIME SKY/WX TEMP WIND PRES VSBY WAVE AIR SEA DIR/SP/G HT/PER (UTC) (F) (DEG/KT/KT) (MB) (MI) (FT/S) NY HARB ENTRANCE 0400 44 46 280/ 21/ 27 1012.5 3/ 4 4S FIRE IS 0400 46 N/A 3/ 5 20S FIRE ISLAND 0300 44 50 1011.6 6/ 6 23SW MTP 0400 N/A 5/ 5 HUDSON CANYON 0400 47 55 300/ 23/ 27 1011.7 EXECUTION ROCKS 0400 43 42 270/ 14/ 17 N/A WESTERN LI SOUND 0400 44 270/ 8/ 10 N/A 0 CENTRAL LI SOUND 0300 44 45 280/ 14/ 16 N/A 3/ 4 EASTERN LI SOUND NOT AVBL ROBBINS REEF 0400 42 290/ 13/ 17 1011.5 $$ >>>>>>>>>>>>>>>>>>>>>>>>>>>> KEY <<<<<<<<<<<<<<<<<<<<<<<<<<< > < > SKY/WX - SKY CONDITION/PRESENT WEATHER < > TMP - TEMPERATURE IN FAHRENHEIT < > DP - DEWPOINT IN FAHRENHEIT < > RH - RELATIVE HUMIDITY IN PERCENT < > WIND - DIRECTION AND SPEED IN MPH < > PRES - MEAN SEA LEVEL PRESSURE IN INCHES OF HG < > WCI - WIND CHILL INDEX < > VSB - VISIBILITY IN MILES < > HX - HEAT INDEX < > TC - TEMPERATURE IN CELSIUS < > VRB - VARIABLE WIND DIRECTION < > < >>>>>>>>>>>>>>>>>>>>>>>>>>>> KEY <<<<<<<<<<<<<<<<<<<<<<<<<<<

USA.gov is the U.S. government's official web portal to all federal, state and local government web resources and services.